Home > Weather > Arden-Arcade > Past weeks

Flag for USA Past Weather in Arden-Arcade, California, USA — Yesterday and Last 2 Weeks

Now
57 °F

Clear.


Feels Like: 57 °F
Forecast: 61 / 99 °F
Wind: No wind

Location: Mather Field

Current Time: Jun 30, 2016 at 5:11:10 AM

Latest Report: Jun 30, 2016 at 3:51 AM


Visibility: 10 mi

Pressure: 29.83 "Hg

Humidity: 82%

Dew Point: 52 °F

Location of Arden-ArcadeLocation

Past Weather in Arden-Arcade — Graph

°F

Arden-Arcade Temperature Yesterday

Maximum temperature yesterday: 99 °F (at 3:45 PM)
Minimum temperature yesterday: 59 °F (at 4:55 AM)
Average temperature yesterday: 78 °F

High & Low Weather Summary for the Past Weeks

 TemperatureHumidityPressure
High104 °F (Jun 27, 3:58 PM)94% (Jun 16, 4:55 AM)30.18 "Hg (Jun 16, 4:55 AM)
Low48 °F (Jun 15, 5:45 AM)9% (Jun 20, 5:50 PM)29.81 "Hg (Jun 29, 5:45 PM)
Average76 °F42%29.97 "Hg
* Reported Jun 15 3:55 AM — Jun 30 3:51 AM, Arden-Arcade, Weather by CustomWeather, © 2016

Note: Actual official high and low records may vary slightly from our data, if they occured in-between our weather recording intervals... More about our weather records

Advertising

Arden-Arcade Weather History for the Previous 24 Hours

Scroll right to see more
 ConditionsComfort  
Time TempWeatherWind HumidityBarometerVisibility
3:51 AM
Thu, Jun 30
57 °FClear.No wind82%29.83 "Hg10 mi
2:56 AM57 °FClear.5 mph77%29.83 "Hg10 mi
11:30 PM
Wed, Jun 29
64 °FClear.8 mph68%29.84 "Hg10 mi
10:45 PM66 °FClear.6 mph64%29.84 "Hg10 mi
9:45 PM70 °FClear.6 mph57%29.84 "Hg10 mi
8:45 PM77 °FSunny.6 mph47%29.82 "Hg10 mi
7:45 PM86 °FSunny.10 mph35%29.82 "Hg10 mi
6:50 PM93 °FSunny.10 mph24%29.81 "Hg10 mi
5:45 PM95 °FSunny.9 mph25%29.81 "Hg10 mi
3:45 PM99 °FSunny.8 mph21%29.83 "Hg10 mi
2:45 PM95 °FSunny.7 mph20%29.86 "Hg10 mi
1:45 PM95 °FSunny.7 mph22%29.87 "Hg10 mi
12:47 PM90 °FSunny.7 mph26%29.89 "Hg10 mi
11:51 AM86 °FSunny.7 mph31%29.90 "Hg10 mi
10:46 AM82 °FSunny.3 mph32%29.91 "Hg10 mi
9:46 AM77 °FSunny.5 mph39%29.91 "Hg10 mi
8:45 AM72 °FSunny.5 mph47%29.91 "Hg10 mi
7:56 AM68 °FSunny.No wind53%29.90 "Hg10 mi
5:55 AM59 °FClear.3 mph68%29.87 "Hg10 mi
Weather by CustomWeather, © 2016

See weather overviewHow to use our weather pages